Temp
-17 -16 -16 -16 -16 -16 -16 -16 -16 -16 -17 -17 -18 -18 -18 -18 -18 -18 -19 -19 -20 -20 -21 -21 -21 -22 -22 -23 -23 -23 -24 -25 -26 -27 -28 -29 -30 -31
-16 -16 -16 -16 -16 -17 -17 -16 -17 -17 -17 -17 -18 -18 -19 -19 -19 -19 -19 -20 -20 -21 -21 -22 -22 -22 -23 -23 -24 -24 -25 -26 -28 -29 -30 -31 -32 -32
-16 -16 -16 -16 -17 -16 -17 -17 -17 -17 -17 -18 -18 -18 -19 -19 -19 -19 -20 -20 -21 -21 -22 -22 -22 -23 -24 -24 -25 -25 -27 -28 -30 -31 -31 -32 -33 -33
-16 -16 -16 -17 -17 -17 -17 -17 -17 -17 -18 -18 -18 -19 -19 -19 -19 -20 -20 -21 -21 -22 -22 -22 -23 -24 -24 -25 -26 -27 -30 -31 -32 -33 -32 -32 -33 -34
-17 -17 -17 -17 -17 -17 -17 -17 -18 -18 -19 -19 -19 -19 -19 -19 -20 -21 -21 -21 -22 -22 -23 -23 -24 -25 -25 -26 -28 -29 -31 -33 -33 -33 -33 -34 -34 -34
-17 -17 -17 -17 -17 -17 -18 -18 -18 -19 -19 -19 -19 -19 -20 -20 -20 -21 -21 -22 -22 -23 -24 -24 -25 -25 -26 -27 -28 -30 -32 -33 -34 -34 -34 -35 -34 -34
-17 -17 -17 -17 -18 -18 -18 -18 -19 -19 -19 -19 -20 -20 -20 -21 -21 -21 -22 -22 -22 -23 -24 -24 -25 -25 -26 -28 -30 -31 -32 -33 -33 -35 -35 -35 -35 -35
-18 -18 -18 -18 -18 -18 -19 -19 -19 -19 -20 -20 -20 -21 -21 -21 -21 -22 -22 -22 -22 -23 -23 -23 -24 -25 -27 -29 -31 -32 -33 -33 -34 -35 -35 -35 -35 -35
-18 -18 -18 -18 -19 -19 -19 -20 -20 -20 -20 -20 -20 -21 -22 -22 -22 -22 -22 -22 -22 -23 -24 -23 -25 -26 -29 -31 -32 -33 -33 -33 -35 -35 -36 -36 -36 -36
-18 -18 -18 -19 -19 -19 -20 -20 -20 -20 -20 -20 -20 -21 -22 -22 -22 -22 -22 -22 -22 -23 -25 -25 -26 -28 -31 -32 -33 -33 -34 -35 -35 -36 -36 -36 -36 -36
-18 -18 -19 -19 -20 -20 -20 -20 -20 -20 -20 -20 -21 -22 -23 -23 -23 -23 -24 -23 -23 -24 -26 -26 -28 -30 -32 -33 -33 -34 -35 -36 -36 -36 -36 -36 -36 -36
-19 -19 -19 -19 -20 -20 -20 -20 -20 -20 -21 -21 -22 -23 -23 -24 -24 -25 -25 -24 -25 -25 -27 -28 -30 -31 -32 -33 -34 -36 -37 -37 -36 -37 -36 -36 -36 -36
-19 -19 -19 -20 -20 -20 -20 -20 -20 -21 -21 -21 -22 -22 -23 -24 -24 -25 -25 -26 -26 -26 -29 -30 -30 -32 -34 -34 -35 -37 -37 -37 -37 -37 -36 -36 -37 -36
-19 -20 -20 -20 -20 -20 -21 -21 -21 -21 -21 -22 -22 -23 -24 -24 -25 -25 -26 -27 -28 -29 -30 -31 -31 -33 -34 -36 -37 -37 -37 -37 -37 -37 -37 -37 -36 -36
-20 -20 -21 -20 -20 -20 -21 -21 -21 -22 -22 -23 -24 -24 -24 -25 -25 -26 -27 -28 -29 -31 -31 -31 -32 -34 -36 -37 -38 -37 -37 -37 -37 -37 -37 -37 -36 -36
-20 -20 -20 -20 -21 -21 -21 -22 -22 -23 -23 -24 -24 -25 -25 -26 -26 -27 -28 -29 -30 -31 -32 -33 -34 -35 -36 -37 -38 -38 -38 -37 -37 -37 -37 -37 -36 -36
-20 -20 -21 -21 -22 -22 -22 -23 -23 -24 -24 -25 -25 -26 -26 -27 -28 -29 -30 -31 -32 -32 -33 -35 -36 -36 -37 -38 -38 -38 -38 -38 -38 -37 -37 -37 -37 -37
-20 -21 -21 -22 -22 -22 -23 -24 -24 -25 -25 -26 -26 -27 -28 -29 -30 -31 -32 -32 -32 -33 -34 -36 -37 -38 -38 -38 -38 -38 -38 -38 -38 -38 -37 -37 -37 -37
-21 -22 -22 -22 -23 -23 -24 -25 -25 -26 -27 -27 -27 -28 -30 -30 -31 -32 -32 -33 -34 -34 -35 -37 -38 -39 -39 -38 -38 -38 -38 -38 -38 -38 -37 -37 -37 -37
-22 -22 -22 -23 -24 -24 -25 -26 -26 -27 -27 -28 -29 -30 -31 -31 -32 -33 -33 -33 -35 -36 -37 -38 -39 -39 -39 -39 -38 -38 -38 -38 -38 -38 -37 -37 -37 -37
-22 -23 -24 -24 -25 -26 -26 -27 -27 -28 -28 -30 -31 -32 -32 -32 -33 -33 -34 -34 -36 -37 -38 -39 -39 -39 -39 -39 -39 -38 -38 -38 -38 -38 -37 -37 -37 -37
-24 -25 -25 -26 -26 -26 -27 -27 -28 -30 -31 -32 -32 -32 -33 -33 -33 -34 -35 -36 -37 -38 -39 -39 -39 -39 -39 -39 -39 -38 -38 -38 -38 -38 -38 -38 -37 -37
-25 -25 -26 -26 -27 -27 -28 -29 -30 -32 -32 -32 -33 -33 -34 -34 -34 -35 -36 -37 -38 -39 -39 -39 -39 -39 -39 -39 -39 -39 -39 -38 -38 -38 -38 -38 -38 -37
Height
5723 5723 5720 5718 5716 5713 5710 5707 5704 5701 5698 5692 5686 5678 5671 5666 5660 5654 5647 5640 5631 5623 5615 5607 5598 5589 5580 5570 5559 5547 5536 5524 5510 5500 5491 5483 5478 5473
5717 5714 5712 5709 5706 5703 5700 5697 5693 5689 5685 5679 5673 5665 5657 5651 5645 5639 5632 5625 5615 5607 5597 5588 5578 5569 5558 5547 5535 5522 5510 5497 5487 5476 5468 5463 5457 5452
5707 5704 5701 5698 5695 5692 5689 5685 5680 5674 5669 5664 5659 5652 5644 5636 5629 5622 5616 5610 5600 5588 5579 5569 5559 5548 5537 5524 5510 5496 5484 5473 5463 5453 5448 5445 5439 5433
5696 5693 5690 5687 5685 5682 5677 5673 5667 5660 5655 5651 5643 5636 5630 5622 5615 5608 5599 5591 5584 5573 5561 5550 5539 5527 5515 5499 5485 5470 5458 5448 5443 5437 5430 5428 5422 5417
5685 5682 5679 5677 5673 5669 5665 5659 5653 5647 5640 5634 5629 5621 5614 5605 5599 5591 5585 5577 5564 5552 5542 5531 5517 5505 5491 5477 5463 5450 5441 5431 5424 5418 5412 5409 5405 5402
5674 5671 5668 5664 5660 5655 5651 5646 5639 5631 5624 5618 5612 5604 5597 5588 5580 5573 5568 5558 5550 5534 5522 5509 5492 5483 5471 5456 5444 5433 5425 5416 5409 5403 5398 5393 5389 5386
5662 5659 5656 5653 5647 5643 5636 5630 5624 5617 5609 5602 5594 5587 5579 5571 5561 5553 5546 5541 5535 5515 5502 5494 5472 5460 5445 5433 5421 5412 5406 5401 5396 5390 5384 5379 5375 5373
5651 5647 5644 5639 5633 5628 5621 5614 5608 5601 5593 5585 5577 5570 5562 5552 5544 5535 5525 5517 5516 5499 5480 5477 5456 5444 5425 5410 5400 5394 5387 5383 5379 5374 5369 5366 5363 5360
5639 5635 5630 5624 5618 5612 5605 5597 5590 5583 5576 5569 5561 5551 5543 5532 5526 5517 5504 5494 5485 5473 5450 5450 5433 5419 5401 5390 5381 5377 5375 5369 5364 5360 5357 5355 5351 5348
5625 5620 5615 5609 5602 5594 5587 5579 5573 5566 5558 5551 5542 5532 5522 5512 5501 5492 5482 5473 5468 5452 5428 5417 5407 5394 5382 5373 5366 5361 5357 5354 5351 5347 5346 5343 5340 5338
5609 5604 5599 5593 5585 5578 5572 5564 5556 5548 5539 5531 5521 5510 5500 5488 5476 5466 5455 5445 5441 5438 5413 5393 5383 5369 5363 5358 5351 5345 5342 5340 5338 5337 5335 5333 5330 5330
5595 5588 5582 5575 5569 5562 5555 5548 5540 5532 5522 5512 5502 5491 5481 5470 5456 5442 5430 5420 5409 5407 5392 5375 5364 5349 5343 5340 5336 5331 5329 5327 5327 5327 5325 5323 5322 5322
5578 5572 5565 5558 5551 5544 5537 5530 5523 5515 5505 5496 5487 5476 5466 5454 5441 5427 5411 5396 5386 5379 5365 5350 5347 5334 5325 5321 5321 5320 5320 5317 5318 5317 5315 5314 5314 5314
5562 5556 5548 5540 5533 5526 5519 5511 5503 5495 5485 5477 5467 5457 5449 5437 5425 5411 5397 5382 5365 5353 5349 5335 5327 5317 5311 5309 5309 5310 5309 5309 5309 5307 5306 5306 5307 5307
5544 5536 5529 5522 5515 5507 5499 5491 5482 5473 5465 5456 5447 5438 5428 5418 5406 5394 5380 5365 5354 5338 5327 5320 5311 5304 5299 5300 5300 5301 5301 5300 5300 5299 5299 5300 5300 5300
5523 5516 5509 5502 5494 5487 5478 5469 5460 5451 5443 5436 5427 5417 5407 5396 5383 5370 5360 5349 5338 5327 5311 5304 5298 5294 5292 5292 5293 5294 5292 5292 5291 5292 5293 5293 5294 5294
5503 5496 5489 5481 5474 5466 5457 5448 5439 5430 5422 5413 5403 5394 5384 5373 5362 5348 5336 5328 5318 5310 5299 5291 5287 5286 5285 5286 5287 5286 5285 5285 5285 5286 5287 5287 5287 5288
5483 5475 5468 5460 5451 5443 5436 5427 5418 5409 5400 5391 5381 5370 5360 5351 5342 5330 5318 5309 5303 5293 5286 5281 5280 5279 5280 5281 5281 5280 5280 5279 5279 5280 5281 5281 5281 5282
5462 5454 5446 5438 5430 5422 5414 5406 5397 5387 5377 5368 5357 5347 5338 5330 5320 5311 5302 5293 5285 5279 5275 5273 5272 5273 5274 5275 5274 5274 5274 5273 5274 5275 5276 5276 5275 5276
5439 5431 5424 5416 5408 5400 5392 5384 5374 5364 5354 5344 5335 5326 5316 5309 5300 5291 5283 5279 5271 5267 5264 5263 5265 5266 5267 5267 5267 5267 5267 5268 5269 5269 5270 5270 5270 5269
5417 5409 5402 5394 5386 5378 5370 5361 5351 5340 5330 5321 5312 5303 5295 5288 5281 5274 5268 5262 5257 5255 5255 5255 5256 5257 5259 5259 5259 5259 5261 5262 5264 5264 5265 5265 5265 5264
5395 5388 5380 5372 5364 5355 5345 5335 5325 5314 5306 5298 5290 5282 5275 5268 5263 5258 5251 5248 5246 5245 5246 5248 5250 5250 5251 5252 5252 5253 5255 5257 5259 5259 5260 5260 5260 5259
5373 5365 5357 5347 5337 5328 5318 5309 5299 5290 5281 5275 5269 5262 5255 5249 5243 5240 5235 5233 5234 5235 5237 5240 5242 5244 5245 5246 5247 5248 5250 5252 5254 5255 5255 5255 5254 5254
Wind_Speed
26 31 34 36 37 38 39 41 43 46 49 52 52 53 56 56 57 60 60 63 65 67 70 71 74 77 81 83 87 91 94 95 98 96 91 82 76 70
33 36 37 38 38 38 40 44 47 50 52 54 55 56 56 58 60 62 63 66 67 70 72 76 78 81 84 88 92 94 96 98 93 88 82 75 69 65
39 39 39 39 40 42 44 48 52 54 56 57 59 58 58 61 63 65 67 68 71 74 77 79 82 84 87 91 96 96 96 94 84 78 77 71 63 62
39 40 41 41 43 45 48 52 55 58 59 59 58 60 61 63 65 67 69 71 74 78 81 83 86 88 91 95 95 95 88 81 74 74 73 64 58 58
41 41 42 43 46 49 53 56 59 60 59 60 61 63 66 68 68 70 71 74 79 83 85 87 89 91 93 93 92 89 80 74 77 70 70 64 60 58
42 42 44 47 50 55 57 60 61 59 61 63 64 66 69 71 75 75 74 79 84 85 87 90 93 95 95 92 89 82 72 69 55 68 65 63 61 54
44 45 47 51 55 59 62 63 61 61 63 65 68 70 73 77 78 78 78 83 85 86 89 93 95 98 96 89 82 74 68 64 63 61 62 61 57 48
46 48 52 55 59 61 63 65 64 66 67 68 69 72 75 78 80 83 86 90 90 92 98 101 103 104 94 83 74 67 64 64 61 54 56 52 46 42
50 52 56 59 61 64 67 66 67 68 69 72 72 74 75 79 83 86 90 93 96 99 105 105 103 100 83 73 65 61 60 59 51 48 46 43 40 37
54 57 60 63 68 68 67 68 68 71 74 77 78 77 79 82 86 90 93 97 99 102 106 109 100 87 73 64 59 60 57 50 43 39 38 37 35 32
59 61 63 69 69 70 69 68 71 74 77 78 78 79 81 85 90 93 95 100 103 102 103 104 87 76 65 58 57 57 47 45 40 37 36 34 30 28
62 64 70 72 71 70 71 74 77 79 79 79 79 80 82 86 90 94 97 101 105 106 98 93 77 69 63 57 56 45 39 43 43 43 37 32 27 26
66 69 74 77 75 73 74 77 80 82 84 84 83 83 85 88 92 94 99 104 105 103 89 81 69 64 60 55 48 31 40 45 44 41 34 28 25 26
71 75 75 74 74 74 77 82 86 89 89 87 86 85 87 91 93 97 100 101 100 92 79 73 67 60 54 42 38 37 42 45 45 34 28 23 24 25
76 68 70 74 77 81 86 88 89 90 87 85 84 86 90 92 97 98 98 97 87 79 74 68 60 49 41 34 36 40 42 41 31 26 23 22 23 24
69 77 79 82 85 87 88 89 89 87 85 85 87 90 92 97 98 98 94 85 76 70 68 61 48 36 32 29 32 32 33 30 25 22 19 22 22 23
80 82 85 86 87 89 89 88 85 85 86 88 90 93 96 97 95 91 83 75 70 66 59 48 38 27 23 20 19 24 28 24 23 20 20 22 23 21
87 87 87 88 89 89 87 85 85 86 88 90 94 97 96 93 87 80 74 70 65 61 48 38 29 21 22 20 23 28 27 22 20 19 21 22 22 19
88 87 87 87 87 87 86 86 87 88 92 95 96 96 92 87 79 72 68 66 60 51 38 30 27 23 23 24 30 31 28 20 18 21 20 21 21 17
85 86 86 86 86 86 87 88 90 94 96 96 95 91 86 78 71 67 66 63 52 40 31 26 31 32 31 31 36 32 23 18 18 20 19 18 18 18
84 84 84 85 86 87 89 93 95 97 97 94 89 84 78 71 67 65 61 58 43 32 26 31 23 23 31 30 27 24 17 17 18 19 18 17 17 18
82 84 85 87 89 93 96 98 98 96 92 87 82 76 72 68 65 63 57 47 33 30 27 23 24 21 16 18 21 20 17 17 18 18 18 17 17 16
85 88 91 94 97 99 99 97 93 88 85 80 76 72 69 67 62 58 49 38 30 31 33 33 28 24 21 21 21 19 19 17 17 17 16 16 16 16
Wind_Direction
283 281 282 283 284 286 289 292 296 300 300 298 299 300 299 299 303 304 305 304 304 304 305 307 308 308 307 305 306 307 305 303 300 299 298 296 296 294
284 282 282 283 285 289 292 294 298 301 302 301 299 300 300 301 303 304 304 303 304 305 306 308 308 307 306 306 308 308 304 302 300 298 298 298 297 294
281 284 284 287 290 292 295 300 301 302 302 302 300 302 302 304 304 306 306 305 307 309 307 306 307 307 307 308 307 306 302 301 301 300 298 299 295 293
283 286 289 292 292 294 297 299 302 302 301 302 305 305 302 304 305 306 306 307 308 307 306 307 308 308 309 309 306 304 303 302 300 298 297 300 295 295
285 288 289 291 293 298 300 303 302 301 304 307 306 305 305 304 304 306 305 307 309 308 307 309 309 310 312 308 304 302 301 298 299 297 300 297 295 293
288 290 291 293 297 298 301 300 302 307 308 308 306 304 304 305 306 307 309 310 311 308 309 312 311 312 312 306 302 300 297 294 293 292 294 293 293 293
287 289 292 294 298 301 304 306 307 306 306 306 305 306 305 305 304 304 306 310 312 310 312 314 312 314 311 305 301 299 296 296 294 288 288 289 292 291
289 291 294 298 301 303 304 305 306 305 305 306 306 305 305 304 303 304 305 309 311 314 313 314 314 313 308 303 300 297 297 297 294 289 286 288 290 288
290 293 297 300 302 304 305 304 304 304 306 306 306 307 306 305 304 304 306 311 314 315 313 314 313 312 306 302 297 294 294 293 290 288 286 290 291 285
293 296 298 301 305 304 303 304 303 304 305 307 308 307 307 305 305 306 309 311 313 314 313 314 313 309 303 299 295 295 294 289 291 290 288 291 287 279
293 297 301 303 303 305 302 301 303 304 305 307 308 307 306 306 306 307 309 311 312 313 313 313 311 306 302 298 295 293 286 286 292 298 295 291 280 278
295 299 302 303 300 299 298 297 301 304 305 306 307 307 305 305 305 308 310 311 312 313 313 312 309 305 301 297 296 282 284 287 294 299 294 285 278 277
296 298 298 300 298 297 298 297 299 304 304 304 305 305 304 304 305 308 310 311 312 314 313 310 309 304 300 297 291 273 269 280 289 294 287 277 275 276
296 298 299 297 296 297 298 301 302 303 303 303 303 303 303 304 306 309 310 311 313 313 310 309 309 304 298 289 272 263 266 279 286 286 277 272 271 277
296 297 297 296 298 299 301 301 301 301 302 301 301 302 303 305 307 308 309 311 312 309 308 310 309 302 290 275 266 268 275 281 284 275 269 268 273 281
294 296 298 298 298 298 298 299 300 300 300 301 301 302 304 306 307 309 310 310 309 308 309 310 306 294 278 268 268 272 275 283 277 266 267 269 275 283
296 296 296 296 296 297 298 299 299 299 300 300 302 303 305 307 309 310 310 310 310 310 310 306 298 286 267 262 266 281 283 278 266 267 267 273 281 286
294 294 295 295 297 298 298 298 299 299 300 301 302 304 305 308 309 308 309 309 310 310 307 295 280 271 270 271 271 282 287 270 261 263 270 277 281 277
292 293 295 296 296 297 297 298 298 299 300 301 302 304 306 307 307 307 307 307 307 308 299 279 259 246 255 259 267 277 285 263 252 261 269 274 279 274
292 293 294 295 295 296 296 297 298 298 299 301 303 304 305 306 306 306 307 305 305 301 286 263 248 247 253 262 270 276 265 251 254 264 271 275 281 278
292 292 292 294 295 296 296 296 297 298 300 301 302 303 303 304 305 304 303 303 299 289 267 250 260 263 261 263 266 264 252 240 257 267 272 276 274 275
291 292 293 294 295 295 295 296 299 299 300 301 301 302 302 302 303 302 300 297 285 270 254 249 265 280 251 260 261 257 240 239 256 266 269 272 272 277
292 293 294 293 293 295 297 297 298 298 298 299 299 300 301 300 300 297 295 286 272 250 237 235 251 260 261 267 263 249 235 238 254 262 266 268 271 277